[[{"header":{"parameterUnit":"m.s-1","parameterCategory":1,"la1":30.2991,"la2":30.254,"lo1":-89.0895,"lo2":-89.0444,"dy":0.0017,"dx":0.0017,"nx":28,"ny":28,"refTime":"2024-10-04T21:00:00:Z","depth":0,"parameterNumber":2,"parameterNumberName":"U-component_of_WINDS"},"data":[0,0,0,0,0,0,0,0,0,0,0,0,0,0,0,0,0,0,0,0,0,0,0,0,0,0,0,0,0,0,0,0,0,0,0,0,0,0,0,0,0,0,0,0,0,0,0,0,0,0,0,0,0,0,0,0,0,0,-4.7258,-4.7259,0,-4.7331,-4.7332,-4.7333,-4.7219,-4.7215,-4.7212,-4.7208,-4.7285,-4.7291,-4.7296,0,0,0,0,0,0,0,0,0,0,0,0,0,-4.7024,-4.7029,-4.7258,-4.7259,-4.726,-4.7331,-4.7332,-4.7333,-4.722,-4.7215,-4.7211,-4.7206,-4.7283,-4.729,-4.7297,0,0,0,0,0,0,0,0,0,0,0,0,0,-4.7114,-4.703,-4.7258,-4.7212,-4.7209,-4.7331,-4.7332,-4.7333,-4.7221,-4.7215,-4.7209,-4.7204,-4.7281,-4.7289,-4.7298,-4.7469,0,0,-4.7324,-4.7328,0,0,0,0,0,0,0,0,-4.7109,-4.7123,-4.7218,-4.7215,-4.7212,-4.726,-4.7278,-4.7379,-4.7223,-4.7216,-4.7208,-4.7201,-4.7282,-4.729,-4.7317,-4.7472,-4.7476,-4.7325,-4.733,-4.7334,-4.7336,0,0,0,0,0,0,0,-4.7103,-4.7119,-4.7287,-4.7219,-4.7216,-4.7189,-4.7195,-4.7296,-4.7281,-4.7217,-4.7208,-4.7219,-4.7279,-4.7309,-4.7318,-4.7477,-4.7324,-4.7332,-4.7337,-4.7341,-4.7779,-4.7785,0,0,0,0,0,0,-4.7102,-4.7115,-4.7285,-4.7289,-4.7145,-4.7198,-4.7205,-4.7251,-4.728,-4.7279,-4.7224,-4.7213,-4.7297,-4.7308,-4.732,-4.7523,-4.7334,-4.7342,-4.7347,-4.7772,-4.778,-4.7787,0,0,0,0,0,0,-4.7097,-4.7118,-4.7282,-4.72,-4.7218,-4.7208,-4.726,-4.7255,-4.7284,-4.7285,-4.7282,-4.7256,-4.7293,-4.7308,-4.7433,-4.7524,-4.7345,-4.7353,-4.7765,-4.7775,-4.7784,-4.7931,0,0,0,0,0,0,-4.7091,-4.7117,-4.7181,-4.7202,-4.7223,-4.7393,-4.7266,-4.7261,-4.7299,-4.7286,-4.7315,-4.7314,-4.7289,-4.7421,-4.7441,-4.7533,-4.736,-4.7757,-4.7769,-4.7781,-4.7918,-4.7944,-4.7967,0,0,0,0,0,-4.7083,-4.722,-4.7185,-4.7206,-4.7303,-4.7398,-4.741,-4.7378,-4.7307,-4.7372,-4.7373,-4.7313,-4.7511,-4.7434,-4.7457,-4.7552,-4.7751,-4.7766,-4.778,-4.7906,-4.7939,-4.7966,0,0,0,0,0,0,-4.721,-4.7221,-4.7183,-4.733,-4.7364,-4.7379,-4.7459,-4.7413,-4.7468,-4.7454,-4.7412,-4.742,-4.7554,-4.7565,-4.748,-4.772,-4.7619,-4.7639,-4.7708,-4.7739,-4.7763,-4.7757,-4.7367,0,0,0,0,0,-4.7255,-4.7331,-4.7337,-4.7466,-4.7485,-4.747,-4.751,-4.7483,-4.7516,-4.753,-4.754,-4.7576,-4.7646,-4.7693,-4.7757,-4.7919,-4.7924,-4.7996,-4.802,-4.804,-4.8058,-4.8146,-4.8178,-4.7835,-4.7835,-4.7835,0,0,-4.7349,-4.7365,-4.7415,-4.7492,-4.7515,-4.7596,-4.7483,-4.7572,-4.7632,-4.7544,-4.7662,-4.7672,-4.7709,-4.7853,-4.7918,-4.7867,-4.8154,-4.8059,-4.8075,-4.8082,-4.8164,-4.8197,-4.8226,-4.7845,-4.7843,-4.7842,0,0,-4.7561,-4.758,-4.7691,-4.7716,-4.7753,-4.7742,-4.7769,-4.7791,-4.7794,-4.7912,-4.7848,-4.7919,-4.8041,-4.807,-4.8101,-4.8327,-4.8275,-4.835,-4.8479,-4.8565,-4.8592,-4.8616,-4.8697,-4.8727,-4.8367,-4.8368,-4.8368,0,-4.7673,-4.7791,-4.7753,-4.7848,-4.7885,-4.7809,-4.7921,-4.7948,-4.8004,-4.8032,-4.7974,-4.8126,-4.8146,-4.8297,-4.8352,-4.838,-4.841,-4.8346,-4.8591,-4.8614,-4.8636,-4.8714,-4.8744,-4.8377,-4.8376,-4.8375,-4.8374,0,-4.7928,-4.8011,-4.8096,-4.8152,-4.8198,-4.8301,-4.828,-4.8332,-4.8301,-4.8297,-4.842,-4.8441,-4.8509,-4.8543,-4.8514,-4.8691,-4.8659,-4.8597,-4.8495,-4.8678,-4.875,-4.878,-4.8389,-4.8386,-4.8383,-4.8381,0,0,-4.822,-4.8255,-4.8287,-4.8313,-4.8348,-4.8412,-4.8513,-4.8579,-4.8625,-4.8667,-4.8751,-4.8856,-4.88,-4.8835,-4.8809,-4.8885,-4.9064,-4.8813,-4.8814,-4.886,-4.9263,-4.9309,-4.9344,-4.903,-4.9036,-4.904,-4.926,0,-4.8432,-4.8605,-4.8575,-4.8743,-4.882,-4.8751,-4.8839,-4.8871,-4.8871,-4.8937,-4.8936,-4.9012,-4.8931,-4.8952,-4.9024,-4.9027,-4.9145,-4.9011,-4.9109,-4.9113,-4.9102,-4.9382,-4.9431,-4.9637,-4.9288,-4.9293,-4.9296,0,-4.8702,-4.8754,-4.893,-4.8955,-4.8986,-4.9066,-4.9125,-4.9189,-4.9225,-4.9219,-4.926,-4.922,-4.9322,-4.9219,-4.936,-4.927,-4.9308,-4.9316,-4.9323,-4.9331,-4.9216,-4.9398,-4.9702,-4.9733,-4.934,-4.9336,-4.9333,0,-4.8898,-4.9013,-4.9133,-4.9157,-4.9189,-4.9247,-4.9263,-4.9293,-4.9335,-4.9388,-4.9415,-4.948,-4.9515,-4.9566,-4.9545,-4.9472,-4.9691,-4.9585,-4.969,-4.9691,-4.9739,-4.9736,-5.0054,-4.9764,-4.9764,-4.9763,-4.9763,0,-4.9138,-4.9249,-4.9222,-4.9296,-4.9419,-4.9384,-4.9507,-4.9515,-4.9543,-4.9619,-4.9563,-4.9635,-4.9603,-4.9674,-4.9658,-4.9778,-4.9794,-4.9794,-4.9788,-4.9799,-4.9799,-4.9823,-4.9809,-4.9771,-4.977,-4.9768,-4.9767,0,-4.9378,-4.9364,-4.9491,-4.9512,-4.952,-4.9609,-4.9627,-4.9698,-4.9693,-4.979,-4.9811,-4.9805,-4.9885,-4.987,-4.9959,-4.9948,-5.0099,-5.0075,-5.0087,-5.0081,-5.0187,-5.0178,-5.0532,-5.0577,-5.0258,-5.0261,-5.0264,0,-4.9531,-4.9615,-4.9645,-4.9691,-4.9712,-4.9788,-4.9831,-4.9801,-4.9849,-4.9898,-4.9963,-5.0038,-5.0097,-5.0229,-5.0234,-5.0302,-5.028,-5.04,-5.029,-5.0298,-5.0283,-5.0278,-5.0287,-5.0421,-5.0425,-5.0428,-5.043,0,-4.9806,-4.9795,-4.9859,-4.9923,-4.9976,-5.0024,-5.0067,-5.0109,-5.0083,-5.014,-5.0222,-5.0267,-5.0359,-5.0435,-5.0499,-5.0517,-5.0471,-5.0465,-5.0493,-5.0505,-5.0508,-5.0508,-5.0146,-5.0457,-5.0454,-5.0452,-5.0451,-5.045,-5.0007,-5.0079,-5.0112,-5.0186,-5.0215,-5.0257,-5.0325,-5.033,-5.0397,-5.0469,-5.0448,-5.0541,-5.0577,-5.0658,-5.0684,-5.0757,-5.0713,-5.0753,-5.0763,-5.0774,-5.0787,-5.0497,-5.0769,-5.0768,-5.0767,-5.0766,-5.0766,0,-5.0279,-5.0297,-5.0366,-5.0428,-5.0487,-5.0438,-5.0484,-5.0537,-5.0619,-5.0657,-5.0716,-5.0811,-5.0886,-5.0897,-5.0968,-5.1024,-5.1005,-5.1044,-5.104,-5.1045,-5.0822,-5.0791,-5.1059,-5.1059,-5.1059,-5.1058,-5.1058,-5.1058,-5.0427,-5.0546,-5.0541,-5.0675,-5.0692,-5.0783,-5.0813,-5.0853,-5.0882,-5.0991,-5.1052,-5.1059,-5.1087,-5.1159,-5.1226,-5.1228,-5.1257,-5.1304,-5.1298,-5.1089,-5.106,-5.1032,-5.1003,-5.1311,-5.1311,-5.1514,-5.1516,-5.1517]},{"header":{"parameterUnit":"m.s-1","parameterCategory":1,"la1":30.2991,"la2":30.254,"lo1":-89.0895,"lo2":-89.0444,"dy":0.0017,"dx":0.0017,"nx":28,"ny":28,"refTime":"2024-10-04T21:00:00:Z","depth":0,"parameterNumber":3,"parameterNumberName":"V-component_of_WINDS"},"data":[0,0,0,0,0,0,0,0,0,0,0,0,0,0,0,0,0,0,0,0,0,0,0,0,0,0,0,0,0,0,0,0,0,0,0,0,0,0,0,0,0,0,0,0,0,0,0,0,0,0,0,0,0,0,0,0,0,0,1.4515,1.4515,0,1.4495,1.4495,1.4495,1.4526,1.4527,1.4528,1.4529,1.45,1.4498,1.4497,0,0,0,0,0,0,0,0,0,0,0,0,0,1.4575,1.4573,1.4515,1.4515,1.4515,1.4495,1.4495,1.4495,1.4525,1.4527,1.4528,1.4529,1.4501,1.4499,1.4497,0,0,0,0,0,0,0,0,0,0,0,0,0,1.4551,1.4573,1.4515,1.4528,1.4529,1.4495,1.4495,1.4495,1.4525,1.4527,1.4528,1.453,1.4502,1.4499,1.4496,1.4447,0,0,1.4488,1.4487,0,0,0,0,0,0,0,0,1.4552,1.4549,1.4526,1.4527,1.4528,1.4515,1.4506,1.4478,1.4525,1.4526,1.4529,1.4531,1.4503,1.4501,1.4493,1.4446,1.4444,1.4488,1.4486,1.4485,1.4484,0,0,0,0,0,0,0,1.4554,1.455,1.4507,1.4526,1.4527,1.4533,1.4531,1.4501,1.4505,1.4526,1.4528,1.4526,1.4504,1.4495,1.4492,1.4444,1.4488,1.4486,1.4484,1.4483,1.4356,1.4354,0,0,0,0,0,0,1.4555,1.4551,1.4508,1.4507,1.4545,1.453,1.4529,1.4517,1.4506,1.4506,1.4525,1.4528,1.4499,1.4495,1.4492,1.4433,1.4485,1.4483,1.4481,1.4358,1.4355,1.4353,0,0,0,0,0,0,1.4556,1.4551,1.4509,1.4529,1.4525,1.4528,1.4515,1.4516,1.4508,1.4505,1.4505,1.4515,1.45,1.4495,1.4459,1.4432,1.4481,1.4479,1.436,1.4357,1.4354,1.4315,0,0,0,0,0,0,1.4558,1.4551,1.4533,1.4529,1.4523,1.4477,1.4513,1.4514,1.4504,1.4507,1.4496,1.4496,1.4501,1.4462,1.4456,1.4429,1.4477,1.4362,1.4358,1.4355,1.4318,1.4311,1.4305,0,0,0,0,0,1.456,1.4521,1.4532,1.4527,1.4502,1.4476,1.4473,1.4482,1.4502,1.4483,1.4482,1.4496,1.4437,1.4458,1.4451,1.4424,1.4364,1.4359,1.4356,1.4321,1.4313,1.4305,0,0,0,0,0,0,1.4519,1.4521,1.4533,1.4493,1.4484,1.4481,1.4458,1.4472,1.4455,1.4459,1.4469,1.4466,1.4427,1.4422,1.4446,1.4376,1.4403,1.4398,1.438,1.4371,1.4365,1.4365,1.4475,0,0,0,0,0,1.4507,1.4487,1.4489,1.4453,1.4449,1.4454,1.4443,1.4452,1.4442,1.4438,1.4434,1.4422,1.4401,1.4386,1.4367,1.4319,1.4316,1.4297,1.429,1.4285,1.4278,1.4252,1.4243,1.434,1.434,1.434,0,0,1.4478,1.4477,1.4463,1.4445,1.4439,1.4418,1.4451,1.4426,1.4409,1.4433,1.4398,1.4395,1.4383,1.4341,1.4322,1.4335,1.4252,1.4279,1.4275,1.4272,1.4247,1.4238,1.423,1.4338,1.4338,1.4339,0,0,1.4415,1.4413,1.4383,1.4377,1.437,1.4374,1.4367,1.4363,1.4363,1.4329,1.4347,1.4326,1.429,1.428,1.4271,1.4207,1.4219,1.4201,1.4164,1.4138,1.4131,1.4124,1.41,1.4091,1.4195,1.4195,1.4195,0,1.4379,1.4349,1.4364,1.4339,1.433,1.4355,1.4323,1.4317,1.4302,1.4294,1.4311,1.4267,1.426,1.4216,1.4201,1.4193,1.4183,1.42,1.4131,1.4125,1.4118,1.4095,1.4086,1.4193,1.4193,1.4193,1.4194,0,1.4306,1.4285,1.4261,1.425,1.4238,1.421,1.4219,1.4205,1.4216,1.4218,1.4183,1.4177,1.4156,1.4147,1.4155,1.4104,1.4113,1.413,1.4157,1.4107,1.4085,1.4076,1.4189,1.419,1.4191,1.4192,0,0,1.4212,1.4213,1.4203,1.4199,1.4194,1.4177,1.415,1.4133,1.412,1.411,1.4086,1.4057,1.4073,1.4063,1.407,1.4049,1.3997,1.4069,1.4068,1.4054,1.3939,1.3924,1.3914,1.4007,1.4006,1.4004,1.3939,0,1.4148,1.4104,1.4118,1.4072,1.4052,1.4077,1.4053,1.4046,1.4049,1.4031,1.4032,1.401,1.4035,1.4029,1.4009,1.4008,1.3974,1.4013,1.3982,1.3981,1.3982,1.3903,1.3886,1.3825,1.3931,1.393,1.3929,0,1.4067,1.4057,1.4009,1.4009,1.4001,1.398,1.3966,1.395,1.3943,1.3946,1.3935,1.3948,1.392,1.3951,1.3911,1.3937,1.3926,1.3924,1.3921,1.3916,1.3949,1.3893,1.3806,1.3796,1.3916,1.3917,1.3918,0,1.4001,1.3976,1.3945,1.394,1.3939,1.3924,1.3922,1.3917,1.3907,1.3894,1.3887,1.3871,1.3861,1.3847,1.3855,1.3877,1.3813,1.3844,1.3812,1.3812,1.3795,1.3795,1.3702,1.3792,1.3792,1.3792,1.3793,0,1.3927,1.3896,1.3916,1.3896,1.3862,1.3879,1.3845,1.3846,1.3842,1.3821,1.3842,1.3822,1.3835,1.3815,1.3821,1.3786,1.3782,1.3782,1.3783,1.3779,1.3778,1.3769,1.3772,1.379,1.3791,1.3791,1.3791,0,1.3846,1.3858,1.3825,1.3829,1.3829,1.3804,1.3806,1.3787,1.3793,1.3767,1.3761,1.3769,1.3747,1.3755,1.3731,1.3735,1.369,1.3698,1.3693,1.3694,1.3661,1.3663,1.3556,1.3542,1.3643,1.3642,1.3642,0,1.3796,1.3774,1.3776,1.3766,1.3764,1.3746,1.3736,1.3752,1.3741,1.3733,1.3714,1.3696,1.3681,1.3645,1.3646,1.3628,1.3635,1.3599,1.3631,1.3628,1.3631,1.3632,1.3629,1.3591,1.3589,1.3589,1.3588,0,1.3705,1.3714,1.37,1.3689,1.3678,1.3669,1.3662,1.3651,1.3667,1.3653,1.3633,1.3622,1.36,1.358,1.3565,1.3561,1.3575,1.3578,1.3569,1.3563,1.356,1.3559,1.3672,1.3579,1.358,1.3581,1.3581,1.3582,1.3637,1.3619,1.3618,1.3602,1.36,1.3593,1.3576,1.3581,1.3565,1.355,1.3561,1.3536,1.3531,1.3512,1.3507,1.3487,1.35,1.3488,1.3484,1.348,1.3475,1.3566,1.3484,1.3484,1.3485,1.3485,1.3485,0,1.3546,1.3548,1.3534,1.3525,1.3512,1.3533,1.3526,1.3514,1.3493,1.3488,1.3475,1.3452,1.3433,1.3435,1.3418,1.3402,1.3408,1.3396,1.3396,1.3394,1.3465,1.3474,1.3391,1.3391,1.3391,1.3391,1.3391,1.3391,1.3497,1.3466,1.3475,1.3443,1.3445,1.3423,1.3418,1.3412,1.3408,1.3382,1.3368,1.3371,1.3368,1.3351,1.3335,1.3336,1.3327,1.3312,1.3315,1.338,1.3389,1.3398,1.3406,1.3311,1.3311,1.3246,1.3245,1.3245]}]]